Regional Weather Roundup
Issued by NWS Spokane, WA

Home | Current Version | Previous Version | Text Only | Print | Product List | Glossary On
Versions: 1 2 3 4 5 6 7 8 9 10 11 12 13 14 15 16 17 18 19 20 21 22 23 24 25 26 27 28 29 30 31 32 33 34 35 36 37 38 39 40 41 42 43 44 45 46 47 48 49 50
010
NZUS01 KOTX 230725
RWROTX

Eastern Washington/Northern Idaho Roundup
National Weather Service, Spokane WA
1200 AM PDT THU MAR 23 2017

Note: "fair" indicated few or no clouds below 12,000 feet with no
significant weather and/or obstructions to visibility.

...Northeast Washington and Northern Idaho Panhandle...

CITY           SKY/WX    TMP DP  RH WIND       PRES   REMARKS
Spokane Intl   PTCLDY    42  39  89 SW10      29.93S
Spokane Downto CLOUDY    45  39  79 W5        29.95R
Coeur d Alene  LGT RAIN  43  39  86 SW7       29.94S
Deer Park      CLOUDY    39  37  92 SE5       29.95R
Sandpoint      LGT RAIN  41  37  87 SW10G16   29.94R
Bonners Ferry  MIX PCPN  39  39 100 CALM      29.90R

...Southeast Washington and southern Idaho Panhandle...

CITY           SKY/WX    TMP DP  RH WIND       PRES   REMARKS
Walla Walla    CLEAR     44  37  76 S14       30.04R
Pullman/Moscow CLEAR     40  33  76 W12       29.99R
Lewiston       CLEAR     43  41  93 S5        30.00R
Lowell           N/A     42  39  89 CALM      30.04R
Grangeville    CLOUDY    39  36  87 W5        29.98S

...Columbia Basin...

CITY           SKY/WX    TMP DP  RH WIND       PRES   REMARKS
Ephrata        CLEAR     37  29  72 S6        29.95R
Moses Lake     CLEAR     42  35  76 SW6       29.96R
Pasco          CLEAR     43  35  73 SW10      30.03R
Richland       SUNNY     45  35  69 SW7       30.04R
Hermiston      CLEAR     44  37  76 SW8       30.05R
Pendleton      CLEAR     41  33  73 S5        30.05R

...East Slopes Cascades...

CITY           SKY/WX    TMP DP  RH WIND       PRES   REMARKS
The Dalles     PTCLDY    46  37  71 W15       30.09R
Yakima         CLEAR     44  30  57 SW8       30.01R
Ellensburg     CLEAR     40  31  70 W14       30.00R
Wenatchee      CLEAR     42  33  70 NW8       29.96R
Omak           CLEAR     40  35  83 SW9       29.91R
Sunnyside      SUNNY     37  32  84 NE6       30.03R

...Southern British Columbia...

CITY           SKY/WX    TMP DP  RH WIND       PRES   REMARKS
Penticton      LGT RAIN  45  39  81 S12       29.88R
Cranbrook      MOCLDY    39  34  81 S10       29.83R
Osoyoos          N/A     45  39  81 S5          N/A
Creston          N/A     43  39  87 SE8         N/A

...Western Montana...

CITY           SKY/WX    TMP DP  RH WIND       PRES   REMARKS
Kalispell      CLOUDY    37  37 100 CALM      29.89R FOG
Missoula       CLOUDY    43  38  82 N10       29.92R

...Neighboring Cities...

CITY           SKY/WX    TMP DP  RH WIND       PRES   REMARKS
Seattle        PTCLDY    44  38  79 S13       30.08R
Portland       MOCLDY    44  36  73 CALM      30.14R
Boise          MOCLDY    46  39  76 W12       29.91R
Great Falls    PTCLDY    32  24  72 SW8       29.80S WCI  25
Calgary        PTCLDY    37  28  70 SW6       29.67S



USA.gov is the U.S. government's official web portal to all federal, state and local government web resources and services.